N8VIM Weather Reports


time (UTC)temp
C
wind
direction
speed
KPH
gust
KPH
rain 1hr
cm
rain 24hr
cm
rain mn
cm
humidity
%
barometer
mb
20260506011012 20 228 4.8 9.7 319.79 0.00 0.00 49 1009.7
20260506010512 21 218 3.2 6.4 319.79 0.00 0.00 49 1009.7
20260506010013 21 274 3.2 12.9 319.79 0.00 0.00 49 1009.5
20260506005512 21 187 3.2 22.5 319.79 0.00 0.00 49 1009.2
20260506005012 21 229 6.4 24.1 319.79 0.00 0.00 48 1009.1
20260506004513 21 180 12.9 27.4 319.79 0.00 0.00 48 1009.1
20260506004012 21 211 8.0 17.7 319.79 0.00 0.00 48 1009.0
20260506003512 21 167 8.0 17.7 319.79 0.00 0.00 48 1008.9
20260506003013 21 194 6.4 24.1 319.79 0.00 0.00 48 1008.7
20260506002512 21 142 6.4 20.9 319.79 0.00 0.00 47 1008.6
20260506002012 21 153 8.0 19.3 319.79 0.00 0.00 47 1008.4
20260506001513 21 172 9.7 25.7 319.79 0.00 0.00 46 1008.4
20260506001012 22 150 16.1 27.4 319.79 0.00 0.00 46 1008.0
20260506000512 22 173 6.4 33.8 319.79 0.00 0.00 46 1008.0
20260506000013 22 197 11.3 27.4 319.79 0.00 0.00 45 1008.0
20260505235512 22 180 11.3 24.1 319.79 0.00 0.00 44 1007.9
20260505235012 22 208 12.9 22.5 319.79 0.00 0.00 44 1007.9
20260505234513 22 148 11.3 29.0 319.79 0.00 0.00 44 1007.8
20260505234012 22 170 16.1 24.1 319.79 0.00 0.00 43 1007.7
20260505233013 23 211 9.7 33.8 319.79 0.00 0.00 43 1007.5
20260505232012 23 167 14.5 32.2 319.79 0.00 0.00 42 1007.4
20260505231513 23 211 6.4 33.8 319.79 0.00 0.00 42 1007.4
20260505231012 23 162 14.5 24.1 319.79 0.00 0.00 41 1007.2
20260505230512 23 177 6.4 33.8 319.79 0.00 0.00 41 1007.2
20260505230013 23 217 9.7 32.2 319.79 0.00 0.00 40 1007.0
20260505225012 24 190 14.5 29.0 319.79 0.00 0.00 38 1007.0
20260505224513 25 181 9.7 19.3 319.79 0.00 0.00 38 1006.9
20260505224012 25 197 4.8 17.7 319.79 0.00 0.00 38 1006.8
20260505223512 25 210 12.9 25.7 319.79 0.00 0.00 36 1006.7
20260505223013 25 203 8.0 22.5 319.79 0.00 0.00 37 1006.5
20260505222512 26 240 12.9 38.6 319.79 0.00 0.00 35 1006.4
20260505221512 26 194 14.5 30.6 319.79 0.00 0.00 33 1006.2
20260505221012 26 181 19.3 30.6 319.79 0.00 0.00 32 1006.1
20260505220512 26 170 11.3 24.1 319.79 0.00 0.00 32 1006.0
20260505220013 26 212 9.7 29.0 319.79 0.00 0.00 31 1005.8
20260505215512 26 198 8.0 35.4 319.79 0.00 0.00 31 1005.8
20260505215012 26 276 17.7 30.6 319.79 0.00 0.00 32 1006.0
20260505214513 26 198 9.7 35.4 319.79 0.00 0.00 30 1006.0
20260505214012 26 207 16.1 43.5 319.79 0.00 0.00 29 1005.9
20260505213512 26 205 8.0 37.0 319.79 0.00 0.00 29 1005.8
20260505213012 26 187 19.3 37.0 319.79 0.00 0.00 28 1005.8
20260505212512 27 194 11.3 29.0 319.79 0.00 0.00 27 1005.7
20260505212012 27 186 9.7 45.1 319.79 0.00 0.00 29 1005.6
20260505211513 27 297 6.4 37.0 319.79 0.00 0.00 27 1005.6
20260505211012 27 184 17.7 37.0 319.79 0.00 0.00 26 1005.5
20260505210012 27 194 8.0 41.8 319.79 0.00 0.00 27 1005.4
20260505205512 27 225 17.7 32.2 319.79 0.00 0.00 24 1005.4
20260505205012 27 198 8.0 48.3 319.79 0.00 0.00 25 1005.5
20260505204612 27 188 19.3 45.1 319.79 0.00 0.00 24 1005.5
20260505204512 27 188 19.3 45.1 319.79 0.00 0.00 24 1005.5
20260505204012 28 300 9.7 41.8 319.79 0.00 0.00 25 1005.5
20260505203512 28 188 9.7 41.8 319.79 0.00 0.00 23 1005.6
20260505203012 28 186 8.0 37.0 319.79 0.00 0.00 23 1005.5
20260505202512 28 222 12.9 40.2 319.79 0.00 0.00 25 1005.5
20260505202013 28 159 11.3 56.3 319.79 0.00 0.00 24 1005.5
20260505201513 28 264 12.9 30.6 319.79 0.00 0.00 24 1005.5
20260505201012 27 240 14.5 27.4 319.79 0.00 0.00 25 1005.5
20260505200512 28 180 11.3 25.7 319.79 0.00 0.00 24 1005.7
20260505200012 28 219 14.5 27.4 319.79 0.00 0.00 24 1005.7
20260505195512 28 165 8.0 46.7 319.79 0.00 0.00 25 1005.5
20260505194512 28 211 12.9 30.6 319.79 0.00 0.00 24 1005.7
20260505194012 28 194 14.5 48.3 319.79 0.00 0.00 24 1005.7
20260505193012 28 221 17.7 37.0 319.79 0.00 0.00 25 1005.7
20260505192512 28 201 8.0 43.5 319.79 0.00 0.00 28 1005.6
20260505192013 28 212 19.3 40.2 319.79 0.00 0.00 24 1005.7
20260505191512 28 165 14.5 41.8 319.79 0.00 0.00 26 1005.8
20260505191012 28 180 11.3 37.0 319.79 0.00 0.00 26 1005.8
20260505190012 28 208 14.5 45.1 319.79 0.00 0.00 26 1006.0
20260505185512 28 194 20.9 35.4 319.79 0.00 0.00 25 1006.1
20260505185012 28 187 12.9 40.2 319.79 0.00 0.00 25 1006.2
20260505184512 28 190 11.3 40.2 319.79 0.00 0.00 28 1006.2
20260505184012 28 188 12.9 43.5 319.79 0.00 0.00 28 1006.3
20260505183012 27 179 12.9 35.4 319.79 0.00 0.00 31 1006.5
20260505182511 27 173 14.5 35.4 319.79 0.00 0.00 32 1006.5
20260505182012 27 141 14.5 35.4 319.79 0.00 0.00 29 1006.6
20260505181512 27 212 12.9 30.6 319.79 0.00 0.00 31 1006.5
20260505181011 27 167 6.4 32.2 319.79 0.00 0.00 34 1006.7
20260505180511 27 198 19.3 40.2 319.79 0.00 0.00 31 1006.9
20260505180012 27 145 16.1 20.9 319.79 0.00 0.00 31 1006.9
20260505175511 27 134 11.3 27.4 319.79 0.00 0.00 30 1007.0
20260505175014 27 176 8.0 25.7 319.79 0.00 0.00 33 1007.1
20260505174512 27 187 12.9 30.6 319.79 0.00 0.00 31 1007.1
20260505174014 27 210 16.1 30.6 319.79 0.00 0.00 32 1007.2
20260505173511 26 132 14.5 32.2 319.79 0.00 0.00 32 1007.1
20260505173013 26 224 9.7 32.2 319.79 0.00 0.00 33 1007.1
20260505172511 26 204 14.5 41.8 319.79 0.00 0.00 32 1007.2
20260505172011 26 197 12.9 20.9 319.79 0.00 0.00 31 1007.2
20260505171513 26 198 12.9 29.0 319.79 0.00 0.00 30 1007.3
20260505170512 26 183 8.0 27.4 319.79 0.00 0.00 33 1007.6
20260505170012 26 177 11.3 17.7 319.79 0.00 0.00 31 1007.6
20260505165512 26 212 9.7 32.2 319.79 0.00 0.00 32 1007.7
20260505165011 26 217 17.7 37.0 319.79 0.00 0.00 30 1007.9
20260505164512 26 201 16.1 30.6 319.79 0.00 0.00 31 1007.9
20260505164012 26 193 9.7 27.4 319.79 0.00 0.00 32 1007.9
20260505163511 26 195 6.4 27.4 319.79 0.00 0.00 33 1008.0
20260505163012 26 167 14.5 24.1 319.79 0.00 0.00 34 1008.0
20260505162511 26 252 16.1 25.7 319.79 0.00 0.00 35 1008.1
20260505162011 26 215 9.7 27.4 319.79 0.00 0.00 33 1008.1
20260505161512 26 264 11.3 27.4 319.79 0.00 0.00 32 1008.1
20260505161011 26 203 9.7 19.3 319.79 0.00 0.00 31 1008.3
20260505160511 25 163 8.0 20.9 319.79 0.00 0.00 35 1008.3
20260505153012 24 163 4.8 16.1 319.79 0.00 0.00 40 1009.2
20260505152511 23 169 11.3 16.1 319.79 0.00 0.00 42 1009.4
20260505152011 23 179 6.4 16.1 319.79 0.00 0.00 42 1009.4
20260505151512 23 198 8.0 14.5 319.79 0.00 0.00 42 1009.5
20260505151012 23 231 6.4 14.5 319.79 0.00 0.00 45 1009.4
20260505150512 22 203 6.4 14.5 319.79 0.00 0.00 46 1009.4
20260505125011 15 184 6.4 8.0 319.79 0.00 0.00 67 1010.0
20260505124512 15 179 0.0 9.7 319.79 0.00 0.00 68 1010.0
20260505124011 15 172 6.4 12.9 319.79 0.00 0.00 66 1010.0
20260505123511 15 169 3.2 16.1 319.79 0.00 0.00 66 1009.9
20260505123012 15 191 3.2 14.5 319.79 0.00 0.00 67 1010.0
20260505122511 15 149 8.0 11.3 319.79 0.00 0.00 67 1009.9
20260505122012 15 193 8.0 14.5 319.79 0.00 0.00 67 1009.8
20260505121512 15 217 8.0 12.9 319.79 0.00 0.00 68 1009.9
20260505121011 15 212 6.4 12.9 319.79 0.00 0.00 69 1009.9
20260505120012 14 180 9.7 16.1 319.79 0.00 0.00 69 1009.9
20260505115511 14 167 6.4 12.9 319.79 0.00 0.00 70 1010.0
20260505115011 13 207 6.4 16.1 319.79 0.00 0.00 70 1010.0
20260505114511 13 305 6.4 9.7 319.79 0.00 0.00 71 1010.1
20260505114011 13 177 6.4 16.1 319.79 0.00 0.00 72 1009.9
20260505113511 13 300 4.8 11.3 319.79 0.00 0.00 73 1009.9
20260505113012 13 219 6.4 11.3 319.79 0.00 0.00 73 1009.9
20260505112511 12 240 1.6 9.7 319.79 0.00 0.00 74 1009.8
20260505112011 12 194 6.4 11.3 319.79 0.00 0.00 74 1009.6
20260505111512 12 267 4.8 11.3 319.79 0.00 0.00 75 1009.7
20260505111011 12 212 4.8 16.1 319.79 0.00 0.00 76 1009.7
20260505110511 12 190 1.6 12.9 319.79 0.00 0.00 77 1009.7
20260505102011 11 239 4.8 11.3 319.79 0.00 0.00 78 1009.5
20260505101511 11 190 6.4 14.5 319.79 0.00 0.00 77 1009.6
20260505101011 11 215 6.4 8.0 319.79 0.00 0.00 77 1009.7
20260505100511 11 163 4.8 14.5 319.79 0.00 0.00 77 1009.6
20260505100011 11 194 8.0 11.3 319.79 0.00 0.00 77 1009.5
20260505095511 11 190 1.6 9.7 319.79 0.00 0.00 76 1009.6
20260505095012 11 193 1.6 9.7 319.79 0.00 0.00 76 1009.6
20260505094511 11 181 3.2 8.0 319.79 0.00 0.00 76 1009.6
20260505094011 11 158 0.0 6.4 319.79 0.00 0.00 76 1009.7
20260505093511 11 204 4.8 8.0 319.79 0.00 0.00 76 1009.7
20260505093012 11 217 3.2 8.0 319.79 0.00 0.00 76 1009.6
20260505092511 11 224 4.8 11.3 319.79 0.00 0.00 76 1009.6
20260505091511 11 208 3.2 11.3 319.79 0.00 0.00 75 1009.7
20260505090511 11 183 4.8 9.7 319.79 0.00 0.00 76 1009.7
20260505090011 11 288 4.8 9.7 319.79 0.00 0.00 76 1009.6
20260505085511 11 201 4.8 16.1 319.79 0.00 0.00 76 1009.6
20260505085011 10 210 4.8 17.7 319.79 0.00 0.00 76 1009.6
20260505084515 10 231 8.0 11.3 319.79 0.00 0.00 76 1009.6
20260505084011 10 226 4.8 12.9 319.79 0.00 0.00 76 1009.7
20260505083511 10 233 6.4 14.5 319.79 0.00 0.00 76 1009.8
20260505083011 10 231 4.8 12.9 319.79 0.00 0.00 76 1009.8
20260505082511 10 200 6.4 11.3 319.79 0.00 0.00 77 1009.9
20260505082010 10 184 4.8 9.7 319.79 0.00 0.00 76 1009.9
20260505081511 10 186 4.8 11.3 319.79 0.00 0.00 77 1010.0
20260505081011 10 252 4.8 9.7 319.79 0.00 0.00 76 1009.9
20260505080011 10 246 4.8 8.0 319.79 0.00 0.00 76 1009.9
20260505075511 10 208 3.2 11.3 319.79 0.00 0.00 76 1009.9
20260505074511 10 239 3.2 6.4 319.79 0.00 0.00 76 1010.0
20260505073511 10 280 3.2 4.8 319.79 0.00 0.00 76 1010.1
20260505073011 10 198 3.2 8.0 319.79 0.00 0.00 76 1010.0
20260505071512 10 280 3.2 4.8 319.79 0.00 0.00 75 1010.0
20260505070511 10 274 3.2 4.8 319.79 0.00 0.00 75 1010.1
20260505070011 10 266 3.2 4.8 319.79 0.00 0.00 74 1010.2
20260505065012 11 274 3.2 3.2 319.79 0.00 0.00 73 1010.3
20260505064514 11 293 3.2 4.8 319.79 0.00 0.00 73 1010.2
20260505064010 11 287 3.2 3.2 319.79 0.00 0.00 73 1010.2
20260505063015 11 294 3.2 4.8 319.79 0.00 0.00 73 1010.2
20260505061515 11 281 3.2 6.4 319.79 0.00 0.00 72 1010.4
20260505061011 11 269 4.8 4.8 319.79 0.00 0.00 72 1010.4
20260505060511 11 236 3.2 4.8 319.79 0.00 0.00 71 1010.4
20260505060011 11 285 3.2 4.8 319.79 0.00 0.00 71 1010.4
20260505055010 11 267 3.2 6.4 319.79 0.00 0.00 70 1010.4
20260505054512 11 262 4.8 6.4 319.79 0.00 0.00 69 1010.4
20260505054010 11 269 4.8 6.4 319.79 0.00 0.00 69 1010.5
20260505053510 11 270 3.2 6.4 319.79 0.00 0.00 69 1010.5
20260505053011 11 295 1.6 4.8 319.79 0.00 0.00 68 1010.5
20260505052510 11 259 1.6 4.8 319.79 0.00 0.00 67 1010.5
20260505052010 12 184 3.2 4.8 319.79 0.00 0.00 67 1010.5
20260505051514 12 221 1.6 9.7 319.79 0.00 0.00 67 1010.5
20260505041511 12 193 4.8 11.3 319.79 0.00 0.00 62 1010.5
20260505040011 12 224 3.2 8.0 319.79 0.00 0.00 61 1010.3
20260505035010 13 212 3.2 9.7 319.79 0.00 0.00 60 1010.3
20260505034511 13 193 4.8 9.7 319.79 0.00 0.00 60 1010.3
20260505034010 13 228 1.6 9.7 319.79 0.00 0.00 59 1010.3
20260505033512 13 201 6.4 9.7 319.79 0.00 0.00 59 1010.2
20260505033011 13 173 3.2 8.0 319.79 0.00 0.00 59 1010.2
20260505032010 13 228 1.6 12.9 319.79 0.00 0.00 58 1010.1
20260505031512 13 211 4.8 12.9 319.79 0.00 0.00 57 1010.1
20260505031011 13 198 4.8 9.7 319.79 0.00 0.00 57 1010.3
20260505030017 14 198 3.2 9.7 319.79 0.00 0.00 56 1010.2
20260505025510 14 238 3.2 8.0 319.79 0.00 0.00 56 1010.1
20260505025010 14 201 4.8 14.5 319.79 0.00 0.00 56 1010.1
20260505024511 14 233 4.8 11.3 319.79 0.00 0.00 56 1010.0
20260505024011 14 221 3.2 17.7 319.79 0.00 0.00 55 1010.0
20260505023514 14 183 4.8 22.5 319.79 0.00 0.00 55 1010.1
20260505023011 14 210 4.8 14.5 319.79 0.00 0.00 55 1010.2
20260505022510 14 214 4.8 9.7 319.79 0.00 0.00 55 1010.2
20260505022010 15 193 3.2 14.5 319.79 0.00 0.00 54 1010.2
20260505021511 15 232 1.6 11.3 319.79 0.00 0.00 54 1010.2
20260505021010 15 218 3.2 14.5 319.79 0.00 0.00 54 1010.2
20260505020510 15 217 8.0 25.7 319.79 0.00 0.00 52 1010.2
20260505020011 15 221 16.1 17.7 319.79 0.00 0.00 53 1010.2
20260505015510 15 194 6.4 16.1 319.79 0.00 0.00 53 1010.2
20260505015010 15 203 6.4 16.1 319.79 0.00 0.00 52 1010.1
20260505014511 15 235 6.4 19.3 319.79 0.00 0.00 51 1010.1
20260505014012 15 148 4.8 14.5 319.79 0.00 0.00 51 1010.0
20260505013510 15 184 6.4 19.3 319.79 0.00 0.00 51 1009.9
20260505013011 15 232 4.8 14.5 319.79 0.00 0.00 51 1009.9
20260505012510 16 165 4.8 16.1 319.79 0.00 0.00 50 1009.8
20260505012010 16 191 3.2 17.7 319.79 0.00 0.00 49 1009.7
20260505011511 16 190 12.9 16.1 319.79 0.00 0.00 48 1009.6